contact:dominique.lefevre@mio.osupytheas.fr, maurice.libes@osupytheas.fr, didier.mallarino@osupytheas.fr
Project:EMSO http://www.emso-fr.org/EMSO-France
Depth: 2436.0 m
Title:EMSO Ligure Ouest : Data MII capteur MICROCAT
DateTime_Computer,Latitude,Longitude,Temperature,Conductivity,Pressure,DateTime_Instrument
DateTime_Computer,Latitude,Longitude,degC,S m-1,dbar,DateTime_Instrument
2021-10-26T00:00:16Z,42.805,6.029,13.3001,4.60023,2470.413,2021-10-26T02:01:40Z
2021-10-26T00:03:19Z,42.805,6.029,13.2994,4.60018,2470.39,2021-10-26T02:04:43Z
2021-10-26T00:06:22Z,42.805,6.029,13.2993,4.60016,2470.366,2021-10-26T02:07:47Z
2021-10-26T00:09:25Z,42.805,6.029,13.3002,4.60019,2470.413,2021-10-26T02:10:50Z
2021-10-26T00:12:28Z,42.805,6.029,13.2993,4.60018,2470.39,2021-10-26T02:13:53Z
2021-10-26T00:15:32Z,42.805,6.029,13.2990,4.60021,2470.39,2021-10-26T02:16:56Z
2021-10-26T00:18:35Z,42.805,6.029,13.2993,4.60019,2470.413,2021-10-26T02:19:59Z
2021-10-26T00:21:38Z,42.805,6.029,13.2996,4.60021,2470.413,2021-10-26T02:23:02Z
2021-10-26T00:24:41Z,42.805,6.029,13.3005,4.60047,2470.39,2021-10-26T02:26:05Z
2021-10-26T00:27:44Z,42.805,6.029,13.2998,4.60019,2470.39,2021-10-26T02:29:08Z
2021-10-26T00:30:47Z,42.805,6.029,13.2995,4.60019,2470.404,2021-10-26T02:32:12Z
2021-10-26T00:33:50Z,42.805,6.029,13.2992,4.60027,2470.39,2021-10-26T02:35:15Z
2021-10-26T00:36:53Z,42.805,6.029,13.2990,4.60021,2470.413,2021-10-26T02:38:18Z
2021-10-26T00:39:57Z,42.805,6.029,13.2994,4.60019,2470.404,2021-10-26T02:41:21Z
2021-10-26T00:43:00Z,42.805,6.029,13.3001,4.60026,2470.366,2021-10-26T02:44:24Z
2021-10-26T00:46:03Z,42.805,6.029,13.2993,4.60022,2470.404,2021-10-26T02:47:27Z
2021-10-26T00:49:06Z,42.805,6.029,13.2995,4.60023,2470.404,2021-10-26T02:50:30Z
2021-10-26T00:52:09Z,42.805,6.029,13.2996,4.60027,2470.366,2021-10-26T02:53:33Z
2021-10-26T00:55:12Z,42.805,6.029,13.2996,4.60022,2470.39,2021-10-26T02:56:37Z
2021-10-26T00:58:15Z,42.805,6.029,13.2992,4.60026,2470.366,2021-10-26T02:59:40Z
2021-10-26T01:01:18Z,42.805,6.029,13.2999,4.60024,2470.39,2021-10-26T03:02:43Z
2021-10-26T01:04:22Z,42.805,6.029,13.2993,4.60019,2470.38,2021-10-26T03:05:46Z
2021-10-26T01:07:25Z,42.805,6.029,13.2993,4.60020,2470.39,2021-10-26T03:08:49Z
2021-10-26T01:10:28Z,42.805,6.029,13.2998,4.60020,2470.38,2021-10-26T03:11:52Z
2021-10-26T01:13:31Z,42.805,6.029,13.2995,4.60018,2470.39,2021-10-26T03:14:55Z
2021-10-26T01:16:34Z,42.805,6.029,13.3000,4.60025,2470.39,2021-10-26T03:17:58Z
2021-10-26T01:19:37Z,42.805,6.029,13.2993,4.60019,2470.38,2021-10-26T03:21:01Z
2021-10-26T01:22:40Z,42.805,6.029,13.2996,4.60029,2470.366,2021-10-26T03:24:05Z
2021-10-26T01:25:43Z,42.805,6.029,13.2998,4.60021,2470.39,2021-10-26T03:27:08Z
2021-10-26T01:28:47Z,42.805,6.029,13.3004,4.60021,2470.343,2021-10-26T03:30:11Z
2021-10-26T01:31:50Z,42.805,6.029,13.3000,4.60021,2470.343,2021-10-26T03:33:14Z
2021-10-26T01:34:53Z,42.805,6.029,13.2991,4.60024,2470.343,2021-10-26T03:36:17Z
2021-10-26T01:37:56Z,42.805,6.029,13.2995,4.60016,2470.366,2021-10-26T03:39:20Z
2021-10-26T01:40:59Z,42.805,6.029,13.2991,4.60025,2470.357,2021-10-26T03:42:23Z
2021-10-26T01:44:02Z,42.805,6.029,13.2996,4.60043,2470.343,2021-10-26T03:45:26Z
2021-10-26T01:47:05Z,42.805,6.029,13.2994,4.60033,2470.39,2021-10-26T03:48:30Z
2021-10-26T01:50:08Z,42.805,6.029,13.2994,4.60023,2470.343,2021-10-26T03:51:33Z
2021-10-26T01:53:12Z,42.805,6.029,13.3001,4.60023,2470.343,2021-10-26T03:54:36Z
2021-10-26T01:56:15Z,42.805,6.029,13.2997,4.60021,2470.38,2021-10-26T03:57:39Z
2021-10-26T01:59:18Z,42.805,6.029,13.2999,4.60037,2470.353,2021-10-26T04:00:42Z
2021-10-26T02:02:21Z,42.805,6.029,13.2998,4.60040,2470.343,2021-10-26T04:03:45Z
2021-10-26T02:05:24Z,42.805,6.029,13.2998,4.60023,2470.357,2021-10-26T04:06:48Z
2021-10-26T02:08:27Z,42.805,6.029,13.2994,4.60026,2470.366,2021-10-26T04:09:51Z
2021-10-26T02:11:30Z,42.805,6.029,13.2993,4.60036,2470.357,2021-10-26T04:12:55Z
2021-10-26T02:14:33Z,42.805,6.029,13.2998,4.60024,2470.39,2021-10-26T04:15:58Z
2021-10-26T02:17:37Z,42.805,6.029,13.3006,4.60033,2470.38,2021-10-26T04:19:01Z
2021-10-26T02:20:40Z,42.805,6.029,13.3000,4.60029,2470.32,2021-10-26T04:22:04Z
2021-10-26T02:23:43Z,42.805,6.029,13.2997,4.60026,2470.343,2021-10-26T04:25:07Z
2021-10-26T02:26:46Z,42.805,6.029,13.3001,4.60040,2470.32,2021-10-26T04:28:10Z
2021-10-26T02:29:49Z,42.805,6.029,13.2998,4.60026,2470.366,2021-10-26T04:31:13Z
2021-10-26T02:32:52Z,42.805,6.029,13.2993,4.60017,2470.32,2021-10-26T04:34:16Z
2021-10-26T02:35:55Z,42.805,6.029,13.2995,4.60026,2470.366,2021-10-26T04:37:20Z
2021-10-26T02:38:58Z,42.805,6.029,13.2998,4.60020,2470.343,2021-10-26T04:40:23Z
2021-10-26T02:42:02Z,42.805,6.029,13.3003,4.60027,2470.366,2021-10-26T04:43:26Z
2021-10-26T02:45:05Z,42.805,6.029,13.3008,4.60025,2470.366,2021-10-26T04:46:29Z
2021-10-26T02:48:08Z,42.805,6.029,13.2992,4.60026,2470.343,2021-10-26T04:49:32Z
2021-10-26T02:51:11Z,42.805,6.029,13.2998,4.60025,2470.38,2021-10-26T04:52:35Z
2021-10-26T02:54:14Z,42.805,6.029,13.3000,4.60024,2470.343,2021-10-26T04:55:38Z
2021-10-26T02:57:17Z,42.805,6.029,13.2996,4.60029,2470.357,2021-10-26T04:58:41Z
2021-10-26T03:00:20Z,42.805,6.029,13.2996,4.60023,2470.357,2021-10-26T05:01:45Z
2021-10-26T03:03:23Z,42.805,6.029,13.2993,4.60021,2470.343,2021-10-26T05:04:48Z
2021-10-26T03:06:26Z,42.805,6.029,13.2995,4.60025,2470.343,2021-10-26T05:07:51Z
2021-10-26T03:09:30Z,42.805,6.029,13.2991,4.60023,2470.357,2021-10-26T05:10:54Z
2021-10-26T03:12:33Z,42.805,6.029,13.2993,4.60023,2470.357,2021-10-26T05:13:57Z
2021-10-26T03:15:36Z,42.805,6.029,13.2993,4.60011,2470.343,2021-10-26T05:17:00Z
2021-10-26T03:18:39Z,42.805,6.029,13.2993,4.60026,2470.32,2021-10-26T05:20:03Z
2021-10-26T03:21:42Z,42.805,6.029,13.2997,4.60024,2470.357,2021-10-26T05:23:06Z
2021-10-26T03:24:45Z,42.805,6.029,13.2998,4.60033,2470.343,2021-10-26T05:26:10Z
2021-10-26T03:27:48Z,42.805,6.029,13.3001,4.60040,2470.38,2021-10-26T05:29:13Z
2021-10-26T03:30:51Z,42.805,6.029,13.2995,4.60021,2470.343,2021-10-26T05:32:16Z
2021-10-26T03:33:55Z,42.805,6.029,13.2996,4.60021,2470.357,2021-10-26T05:35:19Z
2021-10-26T03:36:58Z,42.805,6.029,13.2996,4.60016,2470.334,2021-10-26T05:38:22Z
2021-10-26T03:40:01Z,42.805,6.029,13.2995,4.60021,2470.343,2021-10-26T05:41:25Z
2021-10-26T03:43:04Z,42.805,6.029,13.2992,4.60016,2470.357,2021-10-26T05:44:28Z
2021-10-26T03:46:07Z,42.805,6.029,13.2993,4.60022,2470.297,2021-10-26T05:47:31Z
2021-10-26T03:49:10Z,42.805,6.029,13.3004,4.60025,2470.343,2021-10-26T05:50:35Z
2021-10-26T03:52:13Z,42.805,6.029,13.2993,4.60019,2470.306,2021-10-26T05:53:38Z
2021-10-26T03:55:16Z,42.805,6.029,13.2993,4.60021,2470.357,2021-10-26T05:56:41Z
2021-10-26T03:58:20Z,42.805,6.029,13.2993,4.60021,2470.306,2021-10-26T05:59:44Z
2021-10-26T04:01:23Z,42.805,6.029,13.2991,4.60017,2470.343,2021-10-26T06:02:47Z
2021-10-26T04:04:26Z,42.805,6.029,13.2996,4.60020,2470.32,2021-10-26T06:05:50Z
2021-10-26T04:07:29Z,42.805,6.029,13.2997,4.60021,2470.32,2021-10-26T06:08:53Z
2021-10-26T04:10:32Z,42.805,6.029,13.2996,4.60022,2470.343,2021-10-26T06:11:56Z
2021-10-26T04:13:35Z,42.805,6.029,13.2992,4.60019,2470.32,2021-10-26T06:15:00Z
2021-10-26T04:16:38Z,42.805,6.029,13.2992,4.60021,2470.366,2021-10-26T06:18:03Z
2021-10-26T04:19:41Z,42.805,6.029,13.2997,4.60022,2470.343,2021-10-26T06:21:06Z
2021-10-26T04:22:45Z,42.805,6.029,13.2993,4.60025,2470.334,2021-10-26T06:24:09Z
2021-10-26T04:25:48Z,42.805,6.029,13.3000,4.60022,2470.357,2021-10-26T06:27:12Z
2021-10-26T04:28:51Z,42.805,6.029,13.2993,4.60026,2470.343,2021-10-26T06:30:15Z
2021-10-26T04:31:54Z,42.805,6.029,13.2998,4.60021,2470.343,2021-10-26T06:33:18Z
2021-10-26T04:34:57Z,42.805,6.029,13.2991,4.60019,2470.32,2021-10-26T06:36:21Z
2021-10-26T04:38:00Z,42.805,6.029,13.2998,4.60021,2470.33,2021-10-26T06:39:24Z
2021-10-26T04:41:03Z,42.805,6.029,13.2998,4.60033,2470.366,2021-10-26T06:42:28Z
2021-10-26T04:44:06Z,42.805,6.029,13.2993,4.60029,2470.366,2021-10-26T06:45:31Z
2021-10-26T04:47:10Z,42.805,6.029,13.2993,4.60027,2470.357,2021-10-26T06:48:34Z
2021-10-26T04:50:13Z,42.805,6.029,13.3004,4.60020,2470.343,2021-10-26T06:51:37Z
2021-10-26T04:53:16Z,42.805,6.029,13.2996,4.60039,2470.357,2021-10-26T06:54:40Z
2021-10-26T04:56:19Z,42.805,6.029,13.3000,4.60026,2470.343,2021-10-26T06:57:43Z
2021-10-26T04:59:22Z,42.805,6.029,13.3000,4.60039,2470.343,2021-10-26T07:00:46Z
2021-10-26T05:02:25Z,42.805,6.029,13.2993,4.60026,2470.334,2021-10-26T07:03:50Z
2021-10-26T05:05:28Z,42.805,6.029,13.3003,4.60026,2470.32,2021-10-26T07:06:53Z
2021-10-26T05:08:31Z,42.805,6.029,13.3003,4.60031,2470.343,2021-10-26T07:09:56Z
2021-10-26T05:11:35Z,42.805,6.029,13.2997,4.60026,2470.357,2021-10-26T07:12:59Z
2021-10-26T05:14:38Z,42.805,6.029,13.2998,4.60029,2470.343,2021-10-26T07:16:02Z
2021-10-26T05:17:41Z,42.805,6.029,13.2999,4.60027,2470.357,2021-10-26T07:19:05Z
2021-10-26T05:20:44Z,42.805,6.029,13.2994,4.60029,2470.343,2021-10-26T07:22:08Z
2021-10-26T05:23:47Z,42.805,6.029,13.2991,4.60019,2470.32,2021-10-26T07:25:11Z
2021-10-26T05:26:50Z,42.805,6.029,13.2993,4.60029,2470.357,2021-10-26T07:28:14Z
2021-10-26T05:29:53Z,42.805,6.029,13.2992,4.60022,2470.38,2021-10-26T07:31:18Z
2021-10-26T05:32:56Z,42.805,6.029,13.2992,4.60025,2470.343,2021-10-26T07:34:21Z
2021-10-26T05:36:00Z,42.805,6.029,13.2993,4.60025,2470.366,2021-10-26T07:37:24Z
2021-10-26T05:39:03Z,42.805,6.029,13.2990,4.60025,2470.357,2021-10-26T07:40:27Z
2021-10-26T05:42:06Z,42.805,6.029,13.2997,4.60035,2470.357,2021-10-26T07:43:30Z
2021-10-26T05:45:09Z,42.805,6.029,13.2994,4.60023,2470.357,2021-10-26T07:46:33Z
2021-10-26T05:48:12Z,42.805,6.029,13.2998,4.60044,2470.343,2021-10-26T07:49:36Z
2021-10-26T05:51:15Z,42.805,6.029,13.3003,4.60051,2470.343,2021-10-26T07:52:39Z
2021-10-26T05:54:18Z,42.805,6.029,13.2998,4.60030,2470.38,2021-10-26T07:55:43Z
2021-10-26T05:57:21Z,42.805,6.029,13.2998,4.60026,2470.39,2021-10-26T07:58:46Z
2021-10-26T06:00:25Z,42.805,6.029,13.2993,4.60020,2470.366,2021-10-26T08:01:49Z
2021-10-26T06:03:28Z,42.805,6.029,13.2996,4.60028,2470.343,2021-10-26T08:04:52Z
2021-10-26T06:06:31Z,42.805,6.029,13.2997,4.60021,2470.366,2021-10-26T08:07:55Z
2021-10-26T06:09:34Z,42.805,6.029,13.2995,4.60021,2470.404,2021-10-26T08:10:58Z
2021-10-26T06:12:37Z,42.805,6.029,13.2997,4.60031,2470.366,2021-10-26T08:14:01Z
2021-10-26T06:15:40Z,42.805,6.029,13.2993,4.60052,2470.366,2021-10-26T08:17:04Z
2021-10-26T06:18:43Z,42.805,6.029,13.2998,4.60026,2470.343,2021-10-26T08:20:08Z
2021-10-26T06:21:46Z,42.805,6.029,13.2998,4.60031,2470.38,2021-10-26T08:23:11Z
2021-10-26T06:24:49Z,42.805,6.029,13.2998,4.60024,2470.39,2021-10-26T08:26:14Z
2021-10-26T06:27:53Z,42.805,6.029,13.2997,4.60029,2470.39,2021-10-26T08:29:17Z
2021-10-26T06:30:56Z,42.805,6.029,13.3000,4.60047,2470.39,2021-10-26T08:32:20Z
2021-10-26T06:33:59Z,42.805,6.029,13.2996,4.60026,2470.39,2021-10-26T08:35:23Z
2021-10-26T06:37:02Z,42.805,6.029,13.3005,4.60031,2470.404,2021-10-26T08:38:26Z
2021-10-26T06:40:05Z,42.805,6.029,13.2993,4.60026,2470.39,2021-10-26T08:41:29Z
2021-10-26T06:43:08Z,42.805,6.029,13.2995,4.60025,2470.366,2021-10-26T08:44:33Z
2021-10-26T06:46:11Z,42.805,6.029,13.3000,4.60033,2470.39,2021-10-26T08:47:36Z
2021-10-26T06:49:14Z,42.805,6.029,13.2996,4.60024,2470.38,2021-10-26T08:50:39Z
2021-10-26T06:52:18Z,42.805,6.029,13.2996,4.60022,2470.38,2021-10-26T08:53:42Z
2021-10-26T06:55:21Z,42.805,6.029,13.2998,4.60047,2470.413,2021-10-26T08:56:45Z
2021-10-26T06:58:24Z,42.805,6.029,13.3008,4.60034,2470.366,2021-10-26T08:59:48Z
2021-10-26T07:01:27Z,42.805,6.029,13.2999,4.60045,2470.39,2021-10-26T09:02:51Z
2021-10-26T07:04:30Z,42.805,6.029,13.3004,4.60026,2470.413,2021-10-26T09:05:54Z
2021-10-26T07:07:33Z,42.805,6.029,13.2992,4.60021,2470.413,2021-10-26T09:08:58Z
2021-10-26T07:10:36Z,42.805,6.029,13.2998,4.60027,2470.427,2021-10-26T09:12:01Z
2021-10-26T07:13:39Z,42.805,6.029,13.2991,4.60024,2470.413,2021-10-26T09:15:04Z
2021-10-26T07:16:43Z,42.805,6.029,13.2992,4.60024,2470.413,2021-10-26T09:18:07Z
2021-10-26T07:19:46Z,42.805,6.029,13.3000,4.60023,2470.413,2021-10-26T09:21:10Z
2021-10-26T07:22:49Z,42.805,6.029,13.3002,4.60031,2470.427,2021-10-26T09:24:13Z
2021-10-26T07:25:52Z,42.805,6.029,13.2999,4.60029,2470.39,2021-10-26T09:27:16Z
2021-10-26T07:28:55Z,42.805,6.029,13.3001,4.60036,2470.437,2021-10-26T09:30:19Z
2021-10-26T07:31:58Z,42.805,6.029,13.3004,4.60023,2470.474,2021-10-26T09:33:22Z
2021-10-26T07:35:01Z,42.805,6.029,13.3005,4.60030,2470.437,2021-10-26T09:36:26Z
2021-10-26T07:38:04Z,42.805,6.029,13.2998,4.60037,2470.437,2021-10-26T09:39:29Z
2021-10-26T07:41:08Z,42.805,6.029,13.2996,4.60022,2470.437,2021-10-26T09:42:32Z
2021-10-26T07:44:11Z,42.805,6.029,13.2998,4.60028,2470.437,2021-10-26T09:45:35Z
2021-10-26T07:47:14Z,42.805,6.029,13.2995,4.60024,2470.413,2021-10-26T09:48:38Z
2021-10-26T07:50:17Z,42.805,6.029,13.3000,4.60052,2470.437,2021-10-26T09:51:41Z
2021-10-26T07:53:20Z,42.805,6.029,13.2995,4.60029,2470.45,2021-10-26T09:54:44Z
2021-10-26T07:56:23Z,42.805,6.029,13.3006,4.60040,2470.437,2021-10-26T09:57:47Z
2021-10-26T07:59:26Z,42.805,6.029,13.3000,4.60037,2470.427,2021-10-26T10:00:51Z
2021-10-26T08:02:29Z,42.805,6.029,13.2997,4.60022,2470.437,2021-10-26T10:03:54Z
2021-10-26T08:05:33Z,42.805,6.029,13.2998,4.60022,2470.483,2021-10-26T10:06:57Z
2021-10-26T08:08:36Z,42.805,6.029,13.2998,4.60023,2470.437,2021-10-26T10:10:00Z
2021-10-26T08:11:39Z,42.805,6.029,13.2993,4.60027,2470.483,2021-10-26T10:13:03Z
2021-10-26T08:14:42Z,42.805,6.029,13.2996,4.60026,2470.474,2021-10-26T10:16:06Z
2021-10-26T08:17:45Z,42.805,6.029,13.3000,4.60044,2470.474,2021-10-26T10:19:09Z
2021-10-26T08:20:48Z,42.805,6.029,13.2999,4.60028,2470.497,2021-10-26T10:22:13Z
2021-10-26T08:23:51Z,42.805,6.029,13.2995,4.60024,2470.46,2021-10-26T10:25:16Z
2021-10-26T08:26:54Z,42.805,6.029,13.3001,4.60041,2470.483,2021-10-26T10:28:19Z
2021-10-26T08:29:58Z,42.805,6.029,13.2998,4.60041,2470.483,2021-10-26T10:31:22Z
2021-10-26T08:33:01Z,42.805,6.029,13.2999,4.60019,2470.474,2021-10-26T10:34:25Z
2021-10-26T08:36:04Z,42.805,6.029,13.2997,4.60021,2470.483,2021-10-26T10:37:28Z
2021-10-26T08:39:07Z,42.805,6.029,13.2998,4.60023,2470.46,2021-10-26T10:40:31Z
2021-10-26T08:42:10Z,42.805,6.029,13.2997,4.60026,2470.483,2021-10-26T10:43:34Z
2021-10-26T08:45:13Z,42.805,6.029,13.2998,4.60024,2470.497,2021-10-26T10:46:38Z
2021-10-26T08:48:16Z,42.805,6.029,13.2996,4.60040,2470.483,2021-10-26T10:49:41Z
2021-10-26T08:51:19Z,42.805,6.029,13.3005,4.60034,2470.474,2021-10-26T10:52:44Z
2021-10-26T08:54:23Z,42.805,6.029,13.2996,4.60023,2470.483,2021-10-26T10:55:47Z
2021-10-26T08:57:26Z,42.805,6.029,13.3004,4.60031,2470.474,2021-10-26T10:58:50Z
2021-10-26T09:00:29Z,42.805,6.029,13.3001,4.60032,2470.507,2021-10-26T11:01:53Z
2021-10-26T09:03:32Z,42.805,6.029,13.2999,4.60021,2470.483,2021-10-26T11:04:56Z
2021-10-26T09:06:35Z,42.805,6.029,13.2997,4.60021,2470.483,2021-10-26T11:07:59Z
2021-10-26T09:09:38Z,42.805,6.029,13.3004,4.60036,2470.507,2021-10-26T11:11:03Z
2021-10-26T09:12:41Z,42.805,6.029,13.3002,4.60033,2470.507,2021-10-26T11:14:06Z
2021-10-26T09:15:44Z,42.805,6.029,13.2995,4.60025,2470.507,2021-10-26T11:17:09Z
2021-10-26T09:18:48Z,42.805,6.029,13.3002,4.60040,2470.507,2021-10-26T11:20:12Z
2021-10-26T09:21:51Z,42.805,6.029,13.3000,4.60033,2470.52,2021-10-26T11:23:15Z
2021-10-26T09:24:54Z,42.805,6.029,13.2996,4.60019,2470.497,2021-10-26T11:26:18Z
2021-10-26T09:27:57Z,42.805,6.029,13.2998,4.60021,2470.497,2021-10-26T11:29:21Z
2021-10-26T09:31:00Z,42.805,6.029,13.3003,4.60025,2470.507,2021-10-26T11:32:24Z
2021-10-26T09:34:03Z,42.805,6.029,13.3000,4.60027,2470.497,2021-10-26T11:35:28Z
2021-10-26T09:37:06Z,42.805,6.029,13.3007,4.60044,2470.497,2021-10-26T11:38:31Z
2021-10-26T09:40:10Z,42.805,6.029,13.3001,4.60044,2470.507,2021-10-26T11:41:34Z
2021-10-26T09:43:13Z,42.805,6.029,13.2998,4.60025,2470.52,2021-10-26T11:44:37Z
2021-10-26T09:46:16Z,42.805,6.029,13.3000,4.60031,2470.497,2021-10-26T11:47:40Z
2021-10-26T09:49:19Z,42.805,6.029,13.2994,4.60034,2470.474,2021-10-26T11:50:43Z
2021-10-26T09:52:22Z,42.805,6.029,13.3014,4.60052,2470.497,2021-10-26T11:53:46Z
2021-10-26T09:55:25Z,42.805,6.029,13.2996,4.60038,2470.544,2021-10-26T11:56:49Z
2021-10-26T09:58:28Z,42.805,6.029,13.2996,4.60023,2470.507,2021-10-26T11:59:53Z
2021-10-26T10:01:31Z,42.805,6.029,13.3006,4.60040,2470.507,2021-10-26T12:02:56Z
2021-10-26T10:04:35Z,42.805,6.029,13.3004,4.60052,2470.507,2021-10-26T12:05:59Z
2021-10-26T10:07:38Z,42.805,6.029,13.2994,4.60031,2470.507,2021-10-26T12:09:02Z
2021-10-26T10:10:41Z,42.805,6.029,13.3010,4.60052,2470.52,2021-10-26T12:12:05Z
2021-10-26T10:13:44Z,42.805,6.029,13.3006,4.60031,2470.544,2021-10-26T12:15:08Z
2021-10-26T10:16:47Z,42.805,6.029,13.3000,4.60051,2470.53,2021-10-26T12:18:11Z
2021-10-26T10:19:50Z,42.805,6.029,13.3000,4.60036,2470.52,2021-10-26T12:21:14Z
2021-10-26T10:22:53Z,42.805,6.029,13.2993,4.60021,2470.507,2021-10-26T12:24:18Z
2021-10-26T10:25:56Z,42.805,6.029,13.2999,4.60029,2470.497,2021-10-26T12:27:21Z
2021-10-26T10:29:00Z,42.805,6.029,13.3004,4.60035,2470.52,2021-10-26T12:30:24Z
2021-10-26T10:32:03Z,42.805,6.029,13.2997,4.60036,2470.46,2021-10-26T12:33:27Z
2021-10-26T10:35:06Z,42.805,6.029,13.2998,4.60026,2470.52,2021-10-26T12:36:30Z
2021-10-26T10:38:09Z,42.805,6.029,13.3005,4.60049,2470.52,2021-10-26T12:39:33Z
2021-10-26T10:41:12Z,42.805,6.029,13.2996,4.60041,2470.507,2021-10-26T12:42:36Z
2021-10-26T10:44:15Z,42.805,6.029,13.2994,4.60031,2470.53,2021-10-26T12:45:40Z
2021-10-26T10:47:18Z,42.805,6.029,13.3000,4.60029,2470.507,2021-10-26T12:48:43Z
2021-10-26T10:50:21Z,42.805,6.029,13.3001,4.60025,2470.507,2021-10-26T12:51:46Z
2021-10-26T10:53:25Z,42.805,6.029,13.2998,4.60032,2470.52,2021-10-26T12:54:49Z
2021-10-26T10:56:28Z,42.805,6.029,13.3000,4.60028,2470.507,2021-10-26T12:57:52Z
2021-10-26T10:59:31Z,42.805,6.029,13.2995,4.60039,2470.507,2021-10-26T13:00:55Z
2021-10-26T11:02:34Z,42.805,6.029,13.2998,4.60044,2470.507,2021-10-26T13:03:58Z
2021-10-26T11:05:37Z,42.805,6.029,13.3000,4.60043,2470.507,2021-10-26T13:07:01Z
2021-10-26T11:08:40Z,42.805,6.029,13.2998,4.60034,2470.507,2021-10-26T13:10:05Z
2021-10-26T11:11:43Z,42.805,6.029,13.2998,4.60037,2470.497,2021-10-26T13:13:08Z
2021-10-26T11:14:46Z,42.805,6.029,13.3000,4.60029,2470.52,2021-10-26T13:16:11Z
2021-10-26T11:17:50Z,42.805,6.029,13.2998,4.60033,2470.483,2021-10-26T13:19:14Z
2021-10-26T11:20:53Z,42.805,6.029,13.3006,4.60058,2470.483,2021-10-26T13:22:17Z
2021-10-26T11:23:56Z,42.805,6.029,13.3000,4.60040,2470.497,2021-10-26T13:25:20Z
2021-10-26T11:26:59Z,42.805,6.029,13.3004,4.60049,2470.483,2021-10-26T13:28:23Z
2021-10-26T11:30:02Z,42.805,6.029,13.3004,4.60065,2470.507,2021-10-26T13:31:26Z
2021-10-26T11:33:05Z,42.805,6.029,13.3004,4.60037,2470.497,2021-10-26T13:34:30Z
2021-10-26T11:36:08Z,42.805,6.029,13.2998,4.60035,2470.52,2021-10-26T13:37:33Z
2021-10-26T11:39:11Z,42.805,6.029,13.2994,4.60026,2470.52,2021-10-26T13:40:36Z
2021-10-26T11:42:15Z,42.805,6.029,13.3001,4.60032,2470.483,2021-10-26T13:43:39Z
2021-10-26T11:45:18Z,42.805,6.029,13.2994,4.60031,2470.507,2021-10-26T13:46:42Z
2021-10-26T11:48:21Z,42.805,6.029,13.2998,4.60031,2470.483,2021-10-26T13:49:45Z
2021-10-26T11:51:24Z,42.805,6.029,13.2996,4.60029,2470.483,2021-10-26T13:52:48Z
2021-10-26T11:54:27Z,42.805,6.029,13.3003,4.60047,2470.507,2021-10-26T13:55:51Z
2021-10-26T11:57:30Z,42.805,6.029,13.2995,4.60026,2470.474,2021-10-26T13:58:55Z
2021-10-26T12:00:33Z,42.805,6.029,13.2994,4.60024,2470.497,2021-10-26T14:01:58Z
2021-10-26T12:03:36Z,42.805,6.029,13.3007,4.60038,2470.46,2021-10-26T14:05:01Z
2021-10-26T12:06:40Z,42.805,6.029,13.3000,4.60036,2470.474,2021-10-26T14:08:04Z
2021-10-26T12:09:43Z,42.805,6.029,13.3004,4.60049,2470.46,2021-10-26T14:11:07Z
2021-10-26T12:12:46Z,42.805,6.029,13.2997,4.60037,2470.46,2021-10-26T14:14:10Z
2021-10-26T12:15:49Z,42.805,6.029,13.2997,4.60035,2470.483,2021-10-26T14:17:13Z
2021-10-26T12:18:52Z,42.805,6.029,13.3006,4.60033,2470.497,2021-10-26T14:20:16Z
2021-10-26T12:21:55Z,42.805,6.029,13.3004,4.60026,2470.483,2021-10-26T14:23:20Z
2021-10-26T12:24:58Z,42.805,6.029,13.2996,4.60039,2470.46,2021-10-26T14:26:23Z
2021-10-26T12:28:01Z,42.805,6.029,13.2998,4.60029,2470.483,2021-10-26T14:29:26Z
2021-10-26T12:31:05Z,42.805,6.029,13.2997,4.60052,2470.474,2021-10-26T14:32:29Z
2021-10-26T12:34:08Z,42.805,6.029,13.3005,4.60033,2470.46,2021-10-26T14:35:32Z
2021-10-26T12:37:11Z,42.805,6.029,13.2997,4.60053,2470.45,2021-10-26T14:38:35Z
2021-10-26T12:40:14Z,42.805,6.029,13.3006,4.60069,2470.45,2021-10-26T14:41:38Z
2021-10-26T12:43:17Z,42.805,6.029,13.2997,4.60040,2470.46,2021-10-26T14:44:41Z
2021-10-26T12:46:20Z,42.805,6.029,13.3006,4.60037,2470.474,2021-10-26T14:47:45Z
2021-10-26T12:49:23Z,42.805,6.029,13.3000,4.60037,2470.483,2021-10-26T14:50:48Z
2021-10-26T12:52:27Z,42.805,6.029,13.2996,4.60049,2470.45,2021-10-26T14:53:51Z
2021-10-26T12:55:30Z,42.805,6.029,13.2995,4.60049,2470.46,2021-10-26T14:56:54Z
2021-10-26T12:58:33Z,42.805,6.029,13.3000,4.60049,2470.46,2021-10-26T14:59:57Z
2021-10-26T13:01:36Z,42.805,6.029,13.2998,4.60037,2470.474,2021-10-26T15:03:00Z
2021-10-26T13:04:39Z,42.805,6.029,13.3004,4.60060,2470.45,2021-10-26T15:06:03Z
2021-10-26T13:07:42Z,42.805,6.029,13.2998,4.60052,2470.437,2021-10-26T15:09:06Z
2021-10-26T13:10:45Z,42.805,6.029,13.3005,4.60060,2470.427,2021-10-26T15:12:10Z
2021-10-26T13:13:48Z,42.805,6.029,13.3006,4.60062,2470.413,2021-10-26T15:15:13Z
2021-10-26T13:16:52Z,42.805,6.029,13.3014,4.60039,2470.45,2021-10-26T15:18:16Z
2021-10-26T13:19:55Z,42.805,6.029,13.3002,4.60058,2470.437,2021-10-26T15:21:19Z
2021-10-26T13:22:58Z,42.805,6.029,13.3004,4.60031,2470.437,2021-10-26T15:24:22Z
2021-10-26T13:26:01Z,42.805,6.029,13.2999,4.60051,2470.474,2021-10-26T15:27:25Z
2021-10-26T13:29:04Z,42.805,6.029,13.3003,4.60039,2470.437,2021-10-26T15:30:28Z
2021-10-26T13:32:07Z,42.805,6.029,13.2998,4.60046,2470.474,2021-10-26T15:33:32Z
2021-10-26T13:35:10Z,42.805,6.029,13.2996,4.60045,2470.413,2021-10-26T15:36:35Z
2021-10-26T13:38:13Z,42.805,6.029,13.2999,4.60051,2470.427,2021-10-26T15:39:38Z
2021-10-26T13:41:17Z,42.805,6.029,13.3001,4.60045,2470.437,2021-10-26T15:42:41Z
2021-10-26T13:44:20Z,42.805,6.029,13.3000,4.60038,2470.45,2021-10-26T15:45:44Z
2021-10-26T13:47:23Z,42.805,6.029,13.2999,4.60048,2470.437,2021-10-26T15:48:47Z
2021-10-26T13:50:26Z,42.805,6.029,13.3002,4.60033,2470.437,2021-10-26T15:51:50Z
2021-10-26T13:53:29Z,42.805,6.029,13.2998,4.60033,2470.437,2021-10-26T15:54:53Z
2021-10-26T13:56:32Z,42.805,6.029,13.3010,4.60040,2470.413,2021-10-26T15:57:57Z
2021-10-26T13:59:35Z,42.805,6.029,13.3007,4.60056,2470.45,2021-10-26T16:01:00Z
2021-10-26T14:02:38Z,42.805,6.029,13.2997,4.60033,2470.437,2021-10-26T16:04:03Z
2021-10-26T14:05:42Z,42.805,6.029,13.3003,4.60035,2470.45,2021-10-26T16:07:06Z
2021-10-26T14:08:45Z,42.805,6.029,13.3009,4.60042,2470.437,2021-10-26T16:10:09Z
2021-10-26T14:11:48Z,42.805,6.029,13.3010,4.60044,2470.437,2021-10-26T16:13:12Z
2021-10-26T14:14:51Z,42.805,6.029,13.3002,4.60040,2470.45,2021-10-26T16:16:15Z
2021-10-26T14:17:54Z,42.805,6.029,13.3007,4.60044,2470.437,2021-10-26T16:19:18Z
2021-10-26T14:20:57Z,42.805,6.029,13.3009,4.60054,2470.39,2021-10-26T16:22:22Z
2021-10-26T14:24:00Z,42.805,6.029,13.3009,4.60057,2470.45,2021-10-26T16:25:25Z
2021-10-26T14:27:03Z,42.805,6.029,13.2998,4.60059,2470.39,2021-10-26T16:28:28Z
2021-10-26T14:30:07Z,42.805,6.029,13.3006,4.60044,2470.427,2021-10-26T16:31:31Z
2021-10-26T14:33:10Z,42.805,6.029,13.3004,4.60049,2470.39,2021-10-26T16:34:34Z
2021-10-26T14:36:13Z,42.805,6.029,13.3008,4.60052,2470.413,2021-10-26T16:37:37Z
2021-10-26T14:39:16Z,42.805,6.029,13.2997,4.60042,2470.427,2021-10-26T16:40:40Z
2021-10-26T14:42:19Z,42.805,6.029,13.3004,4.60044,2470.45,2021-10-26T16:43:43Z
2021-10-26T14:45:22Z,42.805,6.029,13.3000,4.60049,2470.427,2021-10-26T16:46:47Z
2021-10-26T14:48:25Z,42.805,6.029,13.3013,4.60043,2470.437,2021-10-26T16:49:50Z
2021-10-26T14:51:28Z,42.805,6.029,13.3003,4.60031,2470.45,2021-10-26T16:52:53Z
2021-10-26T14:54:32Z,42.805,6.029,13.2999,4.60043,2470.413,2021-10-26T16:55:56Z
2021-10-26T14:57:35Z,42.805,6.029,13.3002,4.60040,2470.404,2021-10-26T16:58:59Z
2021-10-26T15:00:38Z,42.805,6.029,13.3004,4.60047,2470.404,2021-10-26T17:02:02Z